Location: Mexico
(19.4000°N, 99.1500°W)
Time: 08:43:38

ISS - Pass Details

Date: 22 March 2018
Orbit: 403 x 406 km, 51.6° (Epoch: 17 March)

Event Time Altitude Azimuth Distance (km) Brightness Sun altitude
Exits shadow 05:37:26 20° 317° (NW) 979 -2.2 -15.3°
Maximum altitude 05:39:30 80° 233° (SW) 410 -4.0 -14.8°
Drops below altitude 10° 05:42:45 10° 145° (SE) 1,446 -0.6 -14.1°
Sets 05:44:49 0° 144° (SE) 2,302 0.4 -13.6°
